Probability
0 0 0 0 0 0 1 2 2 2 2 2 2 3 2 3 3 2 1 1 1 0 0 1 4 7 10 11 9 10 12 13 11 8 7 6 6 7 7 7 8 9 8 8
0 0 0 0 0 0 0 1 1 1 1 1 1 2 3 3 3 2 1 1 1 1 2 3 5 9 12 13 13 12 14 14 12 10 8 7 6 6 7 8 9 9 10 10
0 0 0 0 0 0 0 0 0 0 0 0 1 2 4 4 3 2 1 2 2 3 4 5 7 10 13 16 17 16 16 15 13 11 11 9 7 6 7 9 10 10 10 12
0 0 0 0 0 0 0 0 0 0 0 0 0 1 3 4 3 1 1 3 3 3 4 7 8 11 15 18 20 20 19 17 14 14 15 13 10 8 8 9 9 9 10 12
0 0 0 0 0 0 0 0 0 0 0 0 0 0 1 2 2 1 3 5 4 3 5 10 13 15 19 23 25 24 22 20 17 17 18 17 13 10 9 8 8 8 9 10
0 0 0 0 0 0 0 0 0 0 0 0 0 0 0 1 2 4 7 8 7 6 9 16 20 20 23 27 28 27 26 23 21 21 21 21 18 12 9 8 9 9 9 9
0 0 0 0 0 0 0 0 0 0 0 0 0 0 1 2 4 8 12 13 13 13 15 19 23 24 25 26 28 29 30 28 25 24 24 24 21 17 13 11 11 12 11 10
0 0 0 0 0 0 0 0 0 0 0 0 0 0 2 4 6 10 14 17 19 18 16 18 22 24 24 25 27 31 34 34 30 26 25 23 22 21 18 15 14 15 14 12
0 0 0 0 0 0 0 0 0 0 0 0 0 1 2 5 7 11 14 18 19 16 13 14 19 24 26 26 27 31 37 38 35 30 26 23 22 23 23 20 17 17 16 16
0 0 0 0 0 0 0 0 0 0 0 0 0 1 2 5 8 12 14 15 15 12 9 11 18 26 30 28 28 31 39 42 39 35 30 25 24 25 25 23 20 19 18 18
0 0 0 0 0 0 0 0 0 0 0 0 1 2 3 5 9 12 14 13 12 11 9 10 17 25 29 28 28 34 42 46 43 38 33 31 30 30 28 24 21 19 17 17
0 0 0 0 0 0 0 0 0 0 0 1 2 3 5 7 9 11 13 12 13 14 14 13 16 21 23 25 31 38 43 47 46 41 37 36 36 35 33 28 22 18 17 16
0 0 0 0 0 0 0 0 0 0 0 1 3 6 8 10 10 11 12 13 16 19 18 16 17 19 20 24 32 39 43 46 48 46 43 40 38 37 37 31 25 21 18 17
0 0 0 0 0 0 0 0 0 0 0 1 4 7 10 11 12 13 15 17 19 21 20 19 20 21 22 26 33 40 43 46 49 49 47 43 38 37 35 30 26 23 19 17
0 0 0 0 0 0 0 1 1 1 0 3 6 8 9 12 16 18 19 21 22 21 20 22 25 27 28 30 35 42 46 48 50 51 48 43 37 32 29 26 24 20 16 14
0 0 0 0 0 0 0 1 2 3 3 6 10 11 12 16 20 22 23 24 22 21 22 24 29 33 34 35 37 42 48 50 51 50 47 41 35 28 23 21 20 16 12 11
0 0 0 0 0 0 0 0 2 4 6 10 13 16 19 22 24 25 24 24 22 22 24 25 28 34 36 36 37 41 45 48 48 46 42 37 32 27 23 21 18 16 14 14
0 0 0 0 0 0 0 1 3 6 10 14 18 23 25 28 29 26 23 22 23 24 24 25 28 32 35 36 36 38 41 43 42 39 35 31 29 27 25 23 21 21 20 19
0 0 0 0 0 0 1 2 5 9 15 20 23 25 25 28 30 28 24 23 23 24 25 25 28 32 35 35 33 33 36 37 35 33 29 26 25 25 24 24 23 22 20 18
0 0 0 0 0 1 2 5 8 12 19 23 23 22 21 23 27 27 25 25 25 26 27 26 28 32 33 32 31 31 33 33 31 29 26 23 22 22 23 23 23 21 17 13
0 0 0 0 1 3 6 10 11 13 19 23 22 19 18 18 21 24 25 27 29 31 31 29 29 30 30 29 29 30 29 27 25 24 22 19 18 19 21 22 22 19 15 10
0 0 0 0 1 5 9 12 13 14 19 23 22 18 16 17 20 24 27 30 33 33 32 29 28 27 26 25 26 25 21 18 17 17 16 15 15 16 17 18 18 16 12 9
2 2 2 3 4 6 8 11 15 18 22 24 20 16 15 17 20 25 28 32 33 33 30 28 27 26 24 23 22 19 14 11 10 11 11 11 11 12 13 13 13 12 10 9
6 6 6 7 8 7 7 10 16 21 23 22 18 15 15 16 19 24 27 29 31 30 26 26 26 25 23 20 18 15 12 9 9 10 8 7 8 9 9 9 8 8 8 9
8 8 8 9 8 8 8 10 15 19 20 18 17 17 17 16 19 24 25 26 28 27 23 21 21 21 18 14 12 12 10 10 11 11 9 6 6 6 5 5 5 4 5 5
8 7 8 8 7 8 9 9 13 17 16 16 17 19 18 17 20 24 25 25 26 26 22 18 17 16 13 9 8 9 9 11 12 11 9 7 5 4 3 2 2 1 1 2
Wind_Speed
0 4 3 6 6 6 4 3 4 4 5 6 7 8 11 12 11 11 10 9 10 10 9 9 9 9 8 7 6 6 5 4 4 2 2 1 1 0 0 0 1 2 2 2
4 3 8 5 3 3 2 3 2 2 5 6 6 7 9 11 14 14 13 12 12 9 7 9 9 9 9 8 7 7 6 5 5 3 2 2 2 1 1 0 0 1 1 1
5 7 5 4 3 2 3 5 5 4 2 3 4 0 4 7 7 9 11 11 12 13 12 11 10 9 9 9 9 8 7 6 5 4 2 2 2 1 1 1 0 1 1 1
5 6 4 4 5 5 4 5 6 5 5 1 4 2 6 7 7 10 11 11 12 12 11 11 11 10 10 10 9 8 7 6 5 5 4 4 3 2 2 1 1 2 2 2
5 5 5 5 6 5 5 2 2 5 5 2 1 3 6 3 7 10 12 13 13 13 13 13 12 12 11 10 9 8 7 6 5 5 5 4 3 2 1 1 2 2 1 1
6 4 5 6 4 5 4 4 6 6 5 1 3 3 5 5 10 10 11 11 12 12 13 12 11 10 8 8 8 8 7 6 6 6 5 5 4 3 2 2 2 1 1 1
3 4 2 3 2 1 4 7 4 5 4 4 3 2 7 6 7 9 12 11 10 10 11 11 11 10 9 9 9 8 8 7 6 6 5 5 5 4 4 3 2 2 1 1
3 5 4 4 7 6 4 9 8 5 4 3 3 2 7 5 4 5 7 8 7 8 9 11 12 11 11 11 10 9 9 8 7 7 6 5 4 3 3 3 2 2 2 2
6 6 5 5 5 8 5 4 8 8 3 1 3 4 6 2 3 4 4 5 7 8 9 10 10 10 10 10 10 10 10 8 7 7 6 5 4 4 3 3 2 2 2 1
6 3 4 3 1 1 8 8 6 7 6 2 3 3 4 2 2 3 5 5 5 5 6 7 8 9 9 9 8 8 8 8 7 7 6 5 4 4 3 3 2 2 1 0
5 4 3 1 4 6 4 4 6 5 6 7 2 6 5 5 5 6 5 6 7 6 6 6 6 7 7 6 6 7 7 6 6 6 6 5 4 4 3 3 2 2 1 1
5 6 2 6 6 6 6 7 8 7 4 5 5 7 4 5 5 8 6 5 5 5 5 5 5 5 5 5 6 6 6 6 6 6 6 5 5 4 4 3 2 2 2 1
5 7 3 5 6 3 2 4 6 7 6 5 5 6 1 4 4 5 8 6 6 6 5 4 4 5 5 5 5 5 5 5 5 5 6 5 5 4 4 3 2 2 2 2
7 6 7 8 7 3 1 2 5 7 5 5 6 6 3 5 5 5 6 6 6 6 6 5 4 4 4 4 5 5 5 5 5 5 5 5 5 5 4 3 3 3 3 3
7 4 3 3 3 3 2 2 4 5 7 8 8 8 9 10 10 8 7 7 7 5 5 5 5 4 4 4 4 4 4 4 5 5 5 4 4 4 4 3 3 3 3 3
5 4 2 3 2 1 1 1 2 4 5 6 7 4 5 6 6 7 8 8 7 6 5 4 5 5 5 4 4 4 4 4 4 5 4 4 4 4 4 4 4 4 3 3
3 4 4 2 3 4 3 3 1 3 4 9 8 7 7 8 9 9 9 9 8 7 6 5 4 4 4 4 5 5 4 5 4 4 5 4 4 4 4 4 4 4 3 3
5 4 4 2 4 2 6 3 3 4 2 3 6 7 9 10 8 6 7 8 7 6 6 6 5 4 4 4 4 5 5 5 4 4 4 4 4 4 4 4 4 3 3 4
6 7 4 4 2 2 4 3 2 4 3 2 6 8 9 10 9 5 3 6 7 6 6 6 6 5 4 4 5 6 5 5 4 4 4 4 4 4 4 4 3 3 4 3
5 7 6 4 3 4 5 4 1 7 3 3 5 9 8 8 6 3 3 6 6 6 6 6 6 6 5 3 5 7 6 5 5 4 4 4 4 4 4 4 3 3 3 3
4 4 4 4 2 5 5 5 3 5 4 1 4 7 7 5 5 6 6 6 7 7 7 7 6 6 4 4 5 7 6 4 3 4 4 4 4 4 4 4 3 3 3 4
4 3 3 4 3 5 4 3 3 5 4 5 4 4 6 6 7 7 7 7 7 8 7 7 7 6 3 4 6 6 4 3 3 5 5 5 4 4 4 4 4 4 4 4
2 4 5 5 5 4 1 2 1 4 6 4 5 4 7 7 7 8 6 6 6 7 7 6 7 6 4 4 5 6 3 4 5 5 5 5 5 4 4 4 4 4 3 3
3 2 4 3 1 1 4 4 5 5 6 5 5 7 7 7 7 8 6 6 6 5 5 6 7 6 4 3 4 4 4 5 6 6 5 4 5 4 4 4 3 3 3 3
2 3 4 3 1 4 5 4 4 6 7 8 6 6 7 7 7 7 7 6 5 5 4 5 6 6 4 4 4 4 4 5 6 5 5 5 4 5 5 4 4 2 1 2
2 2 4 3 3 2 1 1 3 6 5 5 7 6 6 6 6 7 6 6 5 5 5 5 5 5 5 4 4 3 3 5 6 5 4 4 4 4 4 4 4 7 5 5
Wind_Direction
319 89 200 216 193 182 186 162 173 191 181 141 150 159 175 177 176 175 174 173 183 186 184 176 174 172 165 163 162 162 163 165 151 142 142 141 170 176 110 197 182 178 189 192
29 243 224 215 200 168 194 192 206 176 161 140 163 180 185 181 186 181 179 179 187 183 174 176 176 176 172 171 169 164 166 167 164 163 161 156 151 159 167 144 116 164 182 190
196 234 212 201 214 196 241 199 200 179 114 72 113 308 201 196 193 187 186 185 185 183 180 180 177 179 175 176 176 174 172 170 170 161 137 119 86 50 41 0 300 247 205 194
228 233 210 196 213 182 243 234 186 158 120 176 134 200 247 202 201 198 193 188 193 187 183 183 180 181 183 185 179 172 171 171 173 164 153 151 152 169 201 194 209 234 220 206
237 209 194 200 208 186 214 228 156 149 138 97 58 126 271 203 207 208 199 194 195 189 186 187 186 184 184 181 176 173 171 174 173 167 164 160 167 182 187 178 197 227 243 236
239 241 200 198 205 192 166 73 46 49 75 84 237 166 259 214 208 201 195 195 197 190 187 186 183 176 175 173 173 172 170 178 177 172 168 169 176 179 170 183 196 227 253 272
293 285 250 163 164 266 104 90 48 17 26 248 259 173 250 233 208 191 184 188 189 180 177 179 177 175 175 174 176 175 174 181 181 176 178 180 184 181 182 189 192 202 227 255
195 264 242 197 174 175 166 135 150 167 192 265 336 235 258 256 200 171 168 172 169 171 175 179 181 179 179 180 179 176 180 184 182 182 187 186 186 182 185 190 184 195 217 236
183 239 257 217 177 148 142 153 159 131 142 120 281 278 298 17 89 130 133 132 156 171 177 177 176 176 178 181 183 182 184 185 185 185 183 185 188 183 183 182 185 193 210 221
169 216 262 239 95 146 151 148 103 114 138 186 280 259 238 238 159 132 131 140 158 155 158 160 166 175 179 182 181 176 180 184 183 184 186 189 189 185 176 164 173 182 192 200
167 163 286 46 169 187 144 118 113 115 143 149 198 266 230 206 165 141 151 153 158 151 151 162 165 170 170 165 168 170 172 173 176 183 189 185 176 173 170 173 183 182 168 156
161 133 214 249 238 182 162 159 141 142 180 154 154 259 261 179 159 138 135 134 133 133 137 152 153 144 148 154 160 166 168 170 177 180 179 176 171 166 169 169 171 153 138 136
135 114 98 341 337 355 128 145 139 128 124 144 154 248 265 129 134 131 130 129 121 118 111 113 127 139 148 153 155 159 163 170 170 165 164 162 162 166 166 161 150 129 121 105
111 110 153 186 210 217 199 151 138 121 140 173 191 195 199 165 157 145 133 129 126 127 121 113 122 131 134 141 150 155 162 163 155 154 156 160 168 166 160 150 135 127 122 117
93 113 157 197 210 178 182 192 172 152 170 168 192 184 198 185 174 162 140 131 132 129 120 125 129 124 118 125 136 145 152 151 148 143 150 165 161 147 138 131 129 120 116 120
71 104 71 1 349 58 3 261 187 164 155 151 151 196 206 160 144 138 137 141 144 140 134 122 119 121 123 126 132 126 125 132 135 134 136 138 133 132 130 133 128 119 111 102
63 98 87 321 327 52 345 285 200 156 155 155 176 195 158 133 146 155 154 148 149 147 143 133 128 118 118 123 127 126 126 118 115 128 127 125 131 134 136 138 127 126 123 107
123 97 111 99 56 174 243 261 108 105 86 142 147 150 147 146 144 136 143 141 145 150 144 136 124 109 109 113 116 117 113 106 120 129 123 124 129 131 131 126 127 134 127 121
135 125 109 108 123 282 303 343 66 99 35 22 132 129 123 121 94 68 112 134 144 138 134 132 121 115 114 125 126 118 116 114 115 123 129 126 127 132 129 131 135 133 126 126
80 102 109 112 131 212 253 287 274 100 53 324 141 135 131 117 122 183 160 116 110 109 113 114 113 107 106 120 126 117 118 127 137 145 139 134 128 130 133 138 133 121 123 128
63 67 111 132 170 255 267 289 52 109 206 228 140 142 135 133 163 163 137 115 109 103 105 106 104 99 100 113 115 112 114 123 137 132 123 115 117 122 122 117 113 113 111 105
147 136 153 132 155 252 308 35 115 182 170 133 111 125 124 117 110 112 117 116 113 109 106 108 105 95 90 101 107 109 114 119 115 117 113 111 106 111 108 107 99 102 109 107
125 173 167 165 196 241 4 106 151 139 123 123 124 117 117 112 109 111 106 109 112 114 114 115 112 103 90 86 105 116 121 116 110 105 103 100 90 82 93 107 114 113 107 110
346 37 90 80 26 16 42 48 44 77 97 102 107 104 106 117 119 120 117 110 104 105 111 111 109 109 102 87 86 102 117 112 106 105 103 98 94 81 74 76 86 107 120 126
316 37 63 71 44 32 25 50 67 75 78 83 86 101 110 116 121 132 125 118 115 112 107 108 115 120 118 101 88 90 101 108 106 104 104 99 94 96 85 72 59 79 88 148
309 136 132 198 218 154 251 337 88 97 94 102 106 95 102 116 125 122 123 125 122 121 115 111 110 116 113 102 92 89 101 110 117 116 114 116 113 107 102 100 71 46 57 68